Location: Zagreb
(45.8000°N, 16.0000°E)
Time: 11:30:25
(UTC+01:00)

Vanguard 1 Rocket - Pass Details

Date: 05 October 2020
Orbit: 656 x 4221 km, 34.3° (Epoch: 28 October)

Event Time Altitude Azimuth Distance (km) Brightness Sun altitude
Rises 01:42:38 0° 273° (W) 7,748 12.0 -47.1°
Enters shadow 01:49:13 - 260° (W) 7,424 11.8 -46.7°
Reaches altitude 10° 01:54:41 10° 247° (WSW) 7,291 - -46.3°
Maximum altitude 02:00:45 11° 233° (SW) 7,280 - -45.8°
Drops below altitude 10° 02:06:58 10° 219° (SW) 7,402 - -45.3°
Sets 02:20:04 0° 192° (SSW) 8,025 - -44.1°
